QPF
0.05 0.04 0.04 0.03 0.03 0.05 0.08 0.09 0.06 0.05 0.04 0.03 0.03 0.03 0.03 0.04 0.02 0.02 0.03 0.03 0.04 0.04 0.04 0.03 0.04 0.04 0.03 0.03 0.02 0.01 0.01 0.01 0.01 0.01 0.01 0.01 0.01 0.01 0.03 0.05 0.06 0.02 0.02
0.03 0.02 0.04 0.03 0.03 0.04 0.07 0.06 0.05 0.04 0.04 0.03 0.02 0.04 0.04 0.05 0.05 0.03 0.03 0.03 0.04 0.05 0.05 0.03 0.03 0.02 0.02 0.02 0.01 0.01 0.01 0.01 0.02 0.02 0.02 0.01 0.01 0.02 0.04 0.06 0.07 0.02 0.02
0.01 0.01 0.02 0.03 0.03 0.04 0.07 0.06 0.06 0.06 0.05 0.04 0.03 0.04 0.05 0.05 0.05 0.04 0.05 0.04 0.04 0.03 0.04 0.04 0.03 0.02 0.02 0.02 0.02 0.01 0.01 0.02 0.03 0.06 0.07 0.02 0.01 0.02 0.02 0.03 0.02 0.02 0.02
0.01 0.01 0.01 0.02 0.02 0.05 0.08 0.06 0.08 0.07 0.07 0.06 0.04 0.04 0.06 0.06 0.04 0.03 0.04 0.05 0.06 0.05 0.04 0.04 0.03 0.02 0.03 0.02 0.02 0.01 0.01 0.03 0.06 0.11 0.07 0.03 0.01 0.01 0.01 0.01 0.02 0.02 0.02
0.01 0.01 0.00 0.01 0.02 0.08 0.09 0.07 0.09 0.07 0.08 0.07 0.06 0.06 0.06 0.06 0.04 0.04 0.04 0.05 0.06 0.06 0.04 0.02 0.02 0.03 0.02 0.02 0.02 0.02 0.02 0.04 0.08 0.10 0.04 0.04 0.01 0.01 0.01 0.02 0.03 0.02 0.01
0.01 0.01 0.01 0.01 0.04 0.09 0.08 0.07 0.07 0.07 0.07 0.08 0.08 0.09 0.07 0.05 0.04 0.04 0.03 0.03 0.03 0.05 0.04 0.02 0.02 0.02 0.02 0.02 0.02 0.03 0.03 0.04 0.07 0.03 0.04 0.03 0.01 0.01 0.01 0.02 0.03 0.01 0.02
0.01 0.02 0.03 0.03 0.07 0.08 0.06 0.06 0.05 0.06 0.06 0.08 0.08 0.07 0.06 0.05 0.04 0.03 0.03 0.03 0.04 0.04 0.03 0.02 0.02 0.02 0.02 0.02 0.01 0.02 0.02 0.04 0.04 0.01 0.04 0.04 0.01 0.01 0.01 0.02 0.03 0.03 0.02
0.01 0.01 0.03 0.05 0.07 0.06 0.05 0.05 0.06 0.06 0.07 0.08 0.06 0.06 0.05 0.04 0.03 0.03 0.03 0.03 0.04 0.07 0.03 0.02 0.01 0.02 0.03 0.02 0.02 0.02 0.01 0.02 0.01 0.01 0.01 0.01 0.00 0.01 0.01 0.02 0.03 0.02 0.02
0.00 0.01 0.03 0.06 0.08 0.09 0.09 0.08 0.08 0.08 0.07 0.06 0.06 0.05 0.04 0.03 0.03 0.03 0.03 0.03 0.05 0.05 0.03 0.02 0.02 0.02 0.02 0.02 0.02 0.01 0.01 0.01 0.01 0.00 0.00 0.00 0.00 0.00 0.00 0.01 0.02 0.01 0.02
0.00 0.00 0.01 0.03 0.06 0.09 0.09 0.09 0.09 0.08 0.06 0.06 0.06 0.04 0.04 0.04 0.04 0.04 0.03 0.04 0.05 0.04 0.03 0.03 0.02 0.02 0.01 0.01 0.01 0.01 0.01 0.00 0.00 0.00 0.01 0.00 0.01 0.01 0.01 0.00 0.01 0.01 0.01
0.01 0.01 0.01 0.02 0.03 0.06 0.06 0.05 0.07 0.07 0.06 0.06 0.06 0.04 0.09 0.13 0.08 0.07 0.04 0.04 0.03 0.04 0.03 0.03 0.03 0.03 0.02 0.01 0.01 0.01 0.00 0.01 0.01 0.01 0.01 0.00 0.01 0.02 0.02 0.01 0.00 0.01 0.00
0.01 0.01 0.01 0.01 0.01 0.02 0.03 0.04 0.10 0.08 0.08 0.11 0.09 0.11 0.16 0.17 0.16 0.09 0.06 0.04 0.02 0.03 0.02 0.02 0.02 0.03 0.03 0.03 0.01 0.01 0.01 0.00 0.01 0.01 0.00 0.00 0.01 0.01 0.01 0.01 0.01 0.01 0.01
0.00 0.00 0.01 0.01 0.01 0.02 0.04 0.03 0.07 0.08 0.09 0.09 0.08 0.09 0.11 0.09 0.08 0.08 0.07 0.05 0.05 0.05 0.05 0.02 0.03 0.06 0.05 0.03 0.02 0.01 0.00 0.01 0.01 0.01 0.01 0.01 0.01 0.01 0.00 0.00 0.01 0.00 0.01
0.01 0.00 0.01 0.01 0.01 0.03 0.03 0.03 0.03 0.04 0.05 0.07 0.06 0.05 0.07 0.09 0.08 0.10 0.10 0.11 0.10 0.10 0.11 0.08 0.07 0.04 0.03 0.01 0.01 0.01 0.01 0.01 0.02 0.02 0.02 0.01 0.01 0.01 0.01 0.00 0.00 0.00 0.00
0.01 0.01 0.01 0.02 0.02 0.03 0.05 0.04 0.02 0.04 0.04 0.04 0.05 0.06 0.05 0.05 0.06 0.07 0.08 0.09 0.08 0.07 0.06 0.07 0.04 0.04 0.03 0.02 0.02 0.03 0.02 0.02 0.02 0.03 0.02 0.01 0.01 0.01 0.01 0.01 0.01 0.01 0.00
0.00 0.00 0.01 0.01 0.02 0.03 0.04 0.04 0.03 0.01 0.04 0.02 0.03 0.04 0.03 0.04 0.05 0.06 0.06 0.07 0.06 0.05 0.05 0.04 0.02 0.03 0.04 0.03 0.03 0.03 0.03 0.02 0.02 0.02 0.02 0.02 0.01 0.01 0.01 0.01 0.01 0.00 0.00
0.00 0.00 0.01 0.02 0.03 0.02 0.03 0.02 0.01 0.01 0.01 0.02 0.04 0.03 0.02 0.02 0.04 0.05 0.07 0.05 0.03 0.02 0.02 0.02 0.02 0.02 0.04 0.03 0.03 0.03 0.03 0.02 0.02 0.02 0.02 0.02 0.02 0.01 0.01 0.01 0.01 0.01 0.01
0.01 0.01 0.01 0.01 0.02 0.02 0.02 0.02 0.01 0.01 0.01 0.03 0.02 0.02 0.01 0.02 0.02 0.03 0.04 0.03 0.03 0.02 0.02 0.02 0.03 0.03 0.04 0.05 0.05 0.04 0.03 0.02 0.01 0.02 0.02 0.03 0.05 0.03 0.02 0.01 0.01 0.01 0.02
0.00 0.01 0.01 0.01 0.01 0.01 0.01 0.02 0.02 0.02 0.03 0.02 0.02 0.02 0.03 0.02 0.02 0.02 0.05 0.05 0.03 0.02 0.02 0.02 0.04 0.04 0.04 0.05 0.03 0.03 0.02 0.01 0.01 0.01 0.02 0.02 0.03 0.04 0.04 0.03 0.01 0.01 0.01
0.00 0.01 0.01 0.01 0.02 0.03 0.03 0.03 0.04 0.03 0.02 0.02 0.02 0.03 0.03 0.02 0.02 0.03 0.04 0.03 0.02 0.03 0.03 0.03 0.05 0.05 0.04 0.03 0.02 0.05 0.02 0.01 0.01 0.01 0.01 0.02 0.02 0.01 0.03 0.04 0.04 0.02 0.02
0.01 0.01 0.01 0.01 0.03 0.03 0.04 0.04 0.04 0.05 0.05 0.04 0.04 0.04 0.03 0.02 0.03 0.04 0.05 0.06 0.03 0.05 0.04 0.03 0.05 0.06 0.06 0.05 0.06 0.07 0.04 0.01 0.03 0.03 0.02 0.02 0.01 0.01 0.02 0.05 0.05 0.05 0.04
0.01 0.01 0.02 0.02 0.02 0.02 0.03 0.05 0.06 0.07 0.07 0.07 0.07 0.08 0.07 0.07 0.05 0.04 0.05 0.05 0.06 0.08 0.06 0.05 0.06 0.08 0.07 0.06 0.07 0.09 0.08 0.07 0.04 0.02 0.02 0.01 0.01 0.00 0.01 0.02 0.03 0.03 0.03
0.01 0.02 0.03 0.03 0.02 0.02 0.03 0.04 0.08 0.12 0.10 0.10 0.08 0.08 0.08 0.07 0.07 0.06 0.05 0.05 0.07 0.06 0.08 0.08 0.06 0.08 0.08 0.07 0.07 0.09 0.11 0.12 0.10 0.04 0.02 0.02 0.03 0.04 0.05 0.04 0.02 0.02 0.03
0.01 0.01 0.01 0.01 0.02 0.02 0.03 0.06 0.10 0.13 0.12 0.12 0.11 0.10 0.07 0.07 0.06 0.06 0.05 0.06 0.06 0.06 0.09 0.06 0.08 0.09 0.08 0.07 0.08 0.09 0.08 0.12 0.14 0.10 0.07 0.05 0.07 0.09 0.09 0.05 0.04 0.04 0.04
0.00 0.00 0.00 0.00 0.01 0.02 0.03 0.06 0.08 0.10 0.11 0.11 0.11 0.12 0.09 0.09 0.07 0.06 0.07 0.10 0.10 0.08 0.08 0.07 0.11 0.10 0.08 0.06 0.07 0.08 0.08 0.10 0.12 0.12 0.12 0.11 0.11 0.10 0.08 0.05 0.06 0.06 0.05
0.00 0.00 0.00 0.01 0.02 0.02 0.03 0.05 0.09 0.12 0.14 0.14 0.13 0.13 0.12 0.10 0.08 0.08 0.08 0.12 0.12 0.11 0.10 0.09 0.09 0.08 0.08 0.08 0.07 0.07 0.09 0.09 0.10 0.12 0.12 0.12 0.10 0.07 0.08 0.09 0.08 0.06 0.05
MSLP
1011.17 1011.31 1011.57 1011.96 1012.39 1012.80 1013.13 1013.32 1013.38 1013.33 1013.22 1013.10 1013.04 1013.06 1013.16 1013.31 1013.50 1013.67 1013.80 1013.89 1013.92 1013.92 1013.91 1013.92 1013.95 1014.01 1014.11 1014.23 1014.38 1014.54 1014.71 1014.88 1015.06 1015.25 1015.45 1015.64 1015.83 1016.02 1016.20 1016.37 1016.54 1016.72 1016.91
1011.21 1011.50 1011.91 1012.40 1012.88 1013.29 1013.56 1013.67 1013.64 1013.52 1013.37 1013.27 1013.26 1013.34 1013.52 1013.74 1013.97 1014.16 1014.28 1014.34 1014.36 1014.35 1014.34 1014.36 1014.42 1014.51 1014.62 1014.74 1014.86 1014.97 1015.10 1015.24 1015.40 1015.59 1015.80 1016.02 1016.25 1016.47 1016.66 1016.82 1016.97 1017.12 1017.27
1011.24 1011.67 1012.20 1012.78 1013.31 1013.72 1013.95 1014.01 1013.92 1013.76 1013.60 1013.51 1013.53 1013.67 1013.90 1014.16 1014.39 1014.57 1014.67 1014.70 1014.69 1014.68 1014.69 1014.74 1014.83 1014.95 1015.07 1015.18 1015.27 1015.34 1015.42 1015.52 1015.67 1015.87 1016.11 1016.37 1016.64 1016.89 1017.10 1017.27 1017.41 1017.53 1017.65
1011.23 1011.77 1012.41 1013.07 1013.66 1014.08 1014.30 1014.33 1014.22 1014.04 1013.89 1013.83 1013.89 1014.06 1014.30 1014.56 1014.78 1014.92 1014.98 1014.97 1014.95 1014.94 1014.97 1015.06 1015.19 1015.34 1015.47 1015.56 1015.61 1015.64 1015.68 1015.75 1015.89 1016.10 1016.37 1016.69 1017.00 1017.29 1017.52 1017.70 1017.83 1017.94 1018.05
1011.19 1011.81 1012.54 1013.27 1013.90 1014.36 1014.60 1014.64 1014.54 1014.38 1014.25 1014.22 1014.30 1014.49 1014.73 1014.96 1015.14 1015.23 1015.24 1015.21 1015.17 1015.17 1015.24 1015.36 1015.53 1015.70 1015.83 1015.90 1015.91 1015.90 1015.89 1015.94 1016.07 1016.30 1016.61 1016.97 1017.33 1017.65 1017.90 1018.09 1018.22 1018.32 1018.43
1011.11 1011.80 1012.59 1013.38 1014.06 1014.57 1014.85 1014.92 1014.86 1014.74 1014.65 1014.64 1014.75 1014.94 1015.16 1015.36 1015.49 1015.54 1015.51 1015.46 1015.42 1015.44 1015.53 1015.69 1015.88 1016.06 1016.17 1016.21 1016.18 1016.12 1016.08 1016.10 1016.24 1016.49 1016.84 1017.24 1017.63 1017.98 1018.25 1018.44 1018.57 1018.67 1018.78
1011.03 1011.74 1012.57 1013.41 1014.14 1014.69 1015.02 1015.15 1015.14 1015.07 1015.03 1015.07 1015.19 1015.38 1015.59 1015.75 1015.85 1015.86 1015.81 1015.75 1015.72 1015.76 1015.88 1016.07 1016.26 1016.43 1016.51 1016.51 1016.43 1016.33 1016.25 1016.27 1016.41 1016.69 1017.07 1017.51 1017.93 1018.30 1018.57 1018.75 1018.87 1018.97 1019.08
1010.97 1011.68 1012.52 1013.38 1014.14 1014.73 1015.11 1015.30 1015.35 1015.34 1015.35 1015.42 1015.57 1015.77 1015.97 1016.12 1016.20 1016.20 1016.15 1016.09 1016.08 1016.15 1016.29 1016.47 1016.66 1016.80 1016.84 1016.79 1016.66 1016.51 1016.42 1016.44 1016.60 1016.91 1017.32 1017.79 1018.23 1018.60 1018.86 1019.03 1019.12 1019.20 1019.31
1010.95 1011.64 1012.46 1013.31 1014.08 1014.69 1015.10 1015.33 1015.44 1015.49 1015.55 1015.66 1015.84 1016.05 1016.26 1016.42 1016.50 1016.51 1016.48 1016.45 1016.47 1016.55 1016.70 1016.87 1017.03 1017.12 1017.11 1017.00 1016.83 1016.66 1016.56 1016.59 1016.78 1017.13 1017.58 1018.07 1018.53 1018.89 1019.14 1019.27 1019.34 1019.38 1019.47
1011.00 1011.64 1012.42 1013.23 1013.98 1014.58 1015.00 1015.25 1015.39 1015.49 1015.60 1015.75 1015.97 1016.20 1016.43 1016.61 1016.72 1016.76 1016.76 1016.76 1016.81 1016.90 1017.04 1017.20 1017.31 1017.35 1017.29 1017.14 1016.94 1016.75 1016.66 1016.72 1016.94 1017.33 1017.82 1018.33 1018.80 1019.16 1019.39 1019.49 1019.52 1019.53 1019.59
1011.11 1011.70 1012.41 1013.16 1013.85 1014.40 1014.81 1015.07 1015.23 1015.35 1015.50 1015.69 1015.93 1016.20 1016.46 1016.67 1016.81 1016.89 1016.93 1016.97 1017.03 1017.13 1017.26 1017.38 1017.46 1017.45 1017.34 1017.16 1016.95 1016.77 1016.70 1016.79 1017.06 1017.49 1018.01 1018.55 1019.03 1019.39 1019.61 1019.69 1019.69 1019.67 1019.70
1011.30 1011.81 1012.44 1013.10 1013.71 1014.21 1014.57 1014.81 1014.97 1015.11 1015.28 1015.51 1015.77 1016.07 1016.35 1016.59 1016.76 1016.88 1016.95 1017.02 1017.10 1017.20 1017.31 1017.40 1017.44 1017.40 1017.27 1017.08 1016.87 1016.72 1016.69 1016.82 1017.13 1017.59 1018.15 1018.71 1019.20 1019.56 1019.78 1019.86 1019.85 1019.82 1019.82
1011.53 1011.98 1012.52 1013.08 1013.60 1014.01 1014.32 1014.53 1014.68 1014.83 1015.01 1015.25 1015.54 1015.84 1016.14 1016.39 1016.59 1016.72 1016.82 1016.90 1016.99 1017.09 1017.18 1017.26 1017.28 1017.23 1017.10 1016.92 1016.74 1016.63 1016.64 1016.80 1017.14 1017.63 1018.19 1018.77 1019.27 1019.65 1019.89 1019.99 1020.00 1019.97 1019.97
1011.79 1012.18 1012.64 1013.11 1013.53 1013.86 1014.11 1014.29 1014.43 1014.57 1014.76 1015.00 1015.29 1015.59 1015.88 1016.13 1016.33 1016.47 1016.57 1016.65 1016.74 1016.84 1016.93 1017.00 1017.03 1016.99 1016.89 1016.75 1016.61 1016.54 1016.58 1016.77 1017.11 1017.60 1018.15 1018.72 1019.23 1019.64 1019.91 1020.06 1020.12 1020.13 1020.15
1012.04 1012.39 1012.78 1013.17 1013.51 1013.78 1013.98 1014.13 1014.26 1014.40 1014.59 1014.82 1015.09 1015.38 1015.64 1015.87 1016.04 1016.16 1016.25 1016.33 1016.42 1016.52 1016.62 1016.71 1016.77 1016.77 1016.71 1016.62 1016.54 1016.50 1016.56 1016.75 1017.07 1017.52 1018.03 1018.57 1019.07 1019.49 1019.81 1020.02 1020.16 1020.24 1020.32
1012.25 1012.59 1012.94 1013.27 1013.55 1013.77 1013.94 1014.08 1014.21 1014.36 1014.54 1014.76 1015.01 1015.25 1015.47 1015.65 1015.78 1015.88 1015.95 1016.02 1016.11 1016.21 1016.34 1016.46 1016.56 1016.62 1016.63 1016.60 1016.57 1016.56 1016.62 1016.77 1017.04 1017.40 1017.84 1018.31 1018.78 1019.20 1019.56 1019.85 1020.07 1020.25 1020.40
1012.43 1012.76 1013.09 1013.37 1013.62 1013.82 1013.99 1014.14 1014.28 1014.45 1014.63 1014.83 1015.04 1015.23 1015.39 1015.51 1015.60 1015.65 1015.70 1015.76 1015.85 1015.98 1016.14 1016.31 1016.46 1016.58 1016.66 1016.70 1016.70 1016.71 1016.75 1016.85 1017.02 1017.28 1017.60 1017.98 1018.38 1018.78 1019.16 1019.50 1019.81 1020.09 1020.34
1012.56 1012.91 1013.21 1013.48 1013.71 1013.91 1014.09 1014.27 1014.44 1014.63 1014.82 1015.00 1015.17 1015.30 1015.40 1015.46 1015.49 1015.50 1015.53 1015.59 1015.69 1015.84 1016.03 1016.25 1016.46 1016.65 1016.79 1016.88 1016.92 1016.93 1016.94 1016.96 1017.03 1017.16 1017.34 1017.60 1017.90 1018.24 1018.61 1018.99 1019.37 1019.73 1020.07
1012.67 1013.02 1013.32 1013.57 1013.79 1014.01 1014.21 1014.43 1014.64 1014.85 1015.04 1015.21 1015.33 1015.41 1015.45 1015.45 1015.43 1015.42 1015.43 1015.48 1015.60 1015.77 1016.00 1016.25 1016.51 1016.75 1016.94 1017.07 1017.14 1017.16 1017.13 1017.09 1017.05 1017.04 1017.09 1017.20 1017.38 1017.64 1017.96 1018.33 1018.74 1019.16 1019.57
1012.79 1013.13 1013.41 1013.64 1013.85 1014.07 1014.31 1014.56 1014.81 1015.04 1015.24 1015.39 1015.48 1015.51 1015.49 1015.44 1015.39 1015.35 1015.35 1015.40 1015.53 1015.72 1015.96 1016.24 1016.53 1016.80 1017.03 1017.20 1017.29 1017.32 1017.27 1017.18 1017.06 1016.94 1016.85 1016.82 1016.87 1017.02 1017.26 1017.59 1017.98 1018.42 1018.87
1012.94 1013.26 1013.49 1013.68 1013.88 1014.10 1014.35 1014.63 1014.90 1015.16 1015.36 1015.49 1015.54 1015.53 1015.47 1015.39 1015.30 1015.24 1015.23 1015.29 1015.41 1015.60 1015.85 1016.12 1016.42 1016.70 1016.96 1017.15 1017.28 1017.33 1017.29 1017.19 1017.02 1016.83 1016.65 1016.50 1016.43 1016.46 1016.59 1016.83 1017.17 1017.58 1018.02
1013.14 1013.41 1013.58 1013.72 1013.87 1014.07 1014.32 1014.61 1014.90 1015.16 1015.36 1015.47 1015.50 1015.46 1015.36 1015.24 1015.14 1015.07 1015.05 1015.10 1015.21 1015.37 1015.59 1015.84 1016.11 1016.39 1016.65 1016.87 1017.04 1017.13 1017.14 1017.07 1016.92 1016.71 1016.48 1016.26 1016.09 1016.01 1016.02 1016.16 1016.40 1016.73 1017.13
1013.40 1013.59 1013.68 1013.74 1013.83 1014.00 1014.23 1014.51 1014.80 1015.06 1015.24 1015.34 1015.34 1015.27 1015.15 1015.02 1014.89 1014.81 1014.78 1014.80 1014.88 1015.00 1015.16 1015.36 1015.58 1015.82 1016.07 1016.31 1016.53 1016.69 1016.79 1016.80 1016.72 1016.56 1016.34 1016.10 1015.87 1015.69 1015.61 1015.62 1015.75 1015.98 1016.29
1013.70 1013.79 1013.78 1013.76 1013.79 1013.90 1014.10 1014.36 1014.64 1014.88 1015.06 1015.13 1015.12 1015.03 1014.89 1014.73 1014.59 1014.49 1014.43 1014.42 1014.44 1014.50 1014.58 1014.69 1014.84 1015.03 1015.25 1015.51 1015.77 1016.02 1016.23 1016.36 1016.40 1016.34 1016.19 1015.98 1015.75 1015.52 1015.35 1015.27 1015.28 1015.40 1015.62
1013.99 1013.99 1013.89 1013.79 1013.75 1013.81 1013.97 1014.21 1014.47 1014.70 1014.86 1014.92 1014.89 1014.78 1014.62 1014.45 1014.30 1014.17 1014.07 1014.00 1013.96 1013.93 1013.92 1013.93 1013.99 1014.10 1014.29 1014.55 1014.85 1015.19 1015.51 1015.78 1015.97 1016.04 1016.01 1015.88 1015.68 1015.45 1015.24 1015.08 1015.00 1015.02 1015.14
1014.25 1014.17 1014.00 1013.83 1013.74 1013.76 1013.89 1014.11 1014.35 1014.57 1014.72 1014.77 1014.73 1014.61 1014.44 1014.25 1014.07 1013.91 1013.77 1013.64 1013.52 1013.39 1013.28 1013.18 1013.14 1013.17 1013.30 1013.54 1013.88 1014.28 1014.70 1015.11 1015.44 1015.67 1015.77 1015.75 1015.62 1015.44 1015.22 1015.03 1014.89 1014.83 1014.87
Thickness
5794 5790 5786 5785 5784 5782 5780 5778 5777 5776 5775 5773 5773 5772 5771 5770 5769 5767 5767 5766 5765 5764 5764 5763 5762 5761 5759 5758 5757 5756 5755 5753 5751 5750 5748 5746 5745 5743 5742 5741 5740 5738 5736
5797 5790 5786 5784 5783 5781 5779 5777 5776 5774 5773 5772 5771 5770 5769 5768 5767 5766 5765 5764 5763 5762 5762 5761 5760 5759 5758 5756 5755 5754 5753 5751 5750 5748 5747 5745 5743 5742 5741 5740 5739 5736 5734
5798 5790 5786 5783 5782 5780 5778 5776 5775 5773 5771 5770 5769 5768 5767 5766 5765 5764 5763 5762 5762 5761 5760 5759 5758 5757 5756 5755 5753 5753 5751 5750 5749 5748 5747 5744 5741 5740 5739 5738 5736 5734 5732
5800 5793 5787 5783 5781 5779 5777 5775 5773 5772 5770 5768 5767 5766 5765 5764 5763 5762 5761 5760 5760 5759 5758 5757 5756 5755 5754 5753 5752 5751 5751 5749 5749 5748 5747 5744 5741 5738 5737 5735 5734 5732 5731
5801 5792 5785 5782 5779 5777 5776 5774 5772 5771 5769 5767 5766 5764 5763 5762 5761 5760 5759 5759 5758 5757 5756 5755 5754 5753 5752 5751 5751 5750 5750 5749 5748 5747 5745 5742 5738 5736 5735 5734 5732 5731 5729
5800 5791 5784 5781 5778 5776 5775 5773 5771 5769 5767 5766 5764 5763 5762 5760 5759 5758 5758 5757 5756 5755 5754 5754 5753 5751 5750 5750 5750 5749 5749 5749 5749 5747 5744 5740 5737 5735 5733 5732 5731 5730 5728
5799 5790 5784 5780 5777 5775 5773 5771 5769 5768 5766 5764 5763 5761 5760 5759 5758 5757 5756 5756 5755 5754 5753 5752 5751 5750 5749 5749 5749 5749 5749 5749 5749 5746 5743 5739 5736 5734 5733 5731 5730 5728 5727
5801 5791 5783 5779 5777 5774 5772 5770 5768 5767 5765 5763 5762 5760 5759 5758 5756 5756 5755 5754 5753 5752 5751 5750 5749 5748 5748 5748 5748 5748 5749 5749 5749 5746 5742 5737 5735 5733 5732 5730 5729 5727 5726
5802 5792 5785 5780 5776 5774 5771 5769 5767 5765 5764 5762 5760 5759 5758 5757 5756 5755 5753 5753 5752 5751 5750 5749 5748 5748 5747 5747 5748 5748 5749 5749 5749 5746 5742 5737 5734 5732 5731 5729 5728 5727 5725
5803 5796 5789 5783 5778 5775 5771 5768 5767 5765 5763 5761 5760 5758 5757 5756 5755 5754 5753 5751 5751 5750 5749 5748 5748 5747 5747 5747 5748 5748 5749 5750 5750 5746 5741 5736 5734 5732 5730 5729 5727 5726 5725
5801 5797 5792 5786 5781 5778 5773 5769 5766 5764 5762 5760 5759 5758 5756 5756 5755 5754 5753 5751 5750 5750 5749 5748 5747 5747 5747 5747 5748 5748 5749 5750 5749 5745 5740 5736 5734 5732 5730 5729 5727 5726 5724
5797 5797 5795 5790 5786 5782 5777 5770 5768 5766 5762 5761 5760 5758 5757 5757 5756 5754 5752 5751 5750 5750 5749 5748 5747 5747 5747 5748 5749 5749 5751 5751 5750 5745 5740 5737 5735 5733 5731 5729 5727 5726 5724
5800 5798 5795 5792 5788 5785 5780 5774 5772 5769 5765 5763 5761 5760 5759 5758 5756 5754 5752 5751 5750 5750 5750 5749 5748 5749 5750 5750 5751 5751 5752 5752 5750 5745 5739 5737 5735 5733 5731 5729 5728 5726 5725
5801 5799 5797 5792 5789 5786 5783 5779 5775 5772 5768 5765 5763 5762 5760 5759 5758 5756 5755 5753 5753 5752 5752 5751 5751 5752 5752 5753 5753 5753 5752 5752 5749 5744 5740 5738 5736 5734 5732 5730 5729 5727 5725
5801 5799 5796 5792 5788 5785 5782 5780 5778 5774 5771 5768 5765 5763 5761 5760 5759 5757 5756 5755 5755 5754 5753 5753 5753 5753 5753 5753 5753 5753 5752 5751 5749 5746 5741 5739 5737 5736 5734 5732 5730 5728 5727
5802 5800 5796 5792 5787 5783 5780 5778 5778 5775 5771 5769 5766 5763 5762 5762 5760 5758 5757 5756 5756 5756 5755 5755 5755 5754 5753 5753 5753 5753 5752 5751 5750 5747 5744 5741 5739 5737 5735 5734 5732 5730 5728
5806 5802 5797 5792 5787 5783 5780 5778 5778 5776 5772 5769 5766 5764 5763 5762 5760 5759 5758 5757 5757 5757 5756 5755 5755 5755 5754 5754 5753 5753 5753 5752 5751 5749 5746 5744 5741 5739 5737 5736 5734 5732 5730
5809 5803 5798 5795 5788 5783 5781 5779 5778 5777 5774 5770 5767 5764 5763 5762 5761 5759 5759 5758 5758 5758 5757 5756 5755 5754 5754 5754 5753 5753 5753 5753 5752 5751 5749 5747 5745 5743 5740 5738 5736 5734 5733
5812 5805 5799 5796 5789 5785 5781 5779 5777 5775 5773 5771 5768 5766 5763 5762 5761 5760 5760 5759 5759 5758 5758 5757 5755 5754 5752 5752 5753 5754 5755 5755 5755 5754 5753 5751 5749 5747 5744 5741 5739 5737 5735
5814 5807 5800 5796 5791 5786 5782 5779 5777 5775 5773 5771 5769 5767 5764 5763 5762 5761 5760 5759 5759 5759 5758 5757 5755 5754 5753 5752 5754 5754 5755 5757 5757 5757 5756 5755 5753 5751 5749 5745 5742 5740 5738
5814 5807 5801 5795 5791 5787 5782 5777 5774 5772 5771 5770 5769 5767 5765 5763 5762 5761 5761 5759 5758 5758 5757 5757 5755 5753 5752 5754 5750 5749 5753 5757 5759 5758 5758 5757 5756 5755 5753 5750 5746 5744 5741
5814 5808 5802 5797 5793 5789 5785 5782 5778 5776 5773 5771 5770 5768 5766 5764 5763 5762 5760 5759 5759 5757 5756 5756 5754 5751 5752 5754 5749 5743 5741 5746 5754 5760 5759 5758 5757 5757 5755 5753 5750 5748 5746
5816 5810 5806 5800 5796 5791 5788 5784 5780 5776 5773 5771 5769 5768 5767 5766 5764 5763 5761 5760 5759 5758 5756 5755 5755 5751 5749 5752 5753 5746 5738 5736 5744 5753 5757 5757 5757 5756 5754 5754 5753 5750 5748
5820 5815 5809 5803 5798 5793 5790 5785 5779 5774 5770 5771 5770 5770 5769 5767 5765 5763 5762 5760 5759 5759 5757 5756 5756 5755 5751 5748 5750 5751 5749 5746 5738 5739 5748 5753 5754 5753 5753 5753 5753 5752 5750
5824 5818 5812 5805 5800 5795 5791 5786 5781 5777 5775 5774 5773 5771 5769 5767 5766 5764 5762 5761 5759 5758 5758 5757 5756 5755 5753 5750 5748 5749 5748 5747 5745 5738 5736 5743 5747 5750 5751 5752 5751 5750 5750
5826 5821 5814 5806 5800 5797 5792 5788 5783 5778 5775 5773 5771 5769 5768 5767 5766 5765 5763 5762 5760 5759 5758 5757 5756 5754 5752 5751 5750 5749 5746 5744 5742 5740 5737 5739 5740 5746 5750 5750 5749 5749 5748